Location: Unspecified
(0.0000°N, 0.0000°E)
Time: 22:26:33
(UTC+00:00)

A-11 Canister half - Visible Passes

Search period start: 01 October 2020 00:00
Search period end: 11 October 2020 00:00
Orbit: 1514 x 1685 km, 47.2° (Epoch: 01 October)

Date Brightness Start Highest point End Pass type
(mag) Time Alt. Az. Time Alt. Az. Time Alt. Az.
08 Oct 11.2 21:49:50 10° SSW 21:50:09 11° SSW 21:50:09 11° SSW visible
09 Oct 10.9 21:26:58 10° SSW 21:28:44 17° SSW 21:28:44 17° SSW visible
10 Oct 10.6 21:04:08 10° SSW 21:07:22 23° SSW 21:07:22 23° SSW visible
